Home   Weather   Emsdetten   Past weeks

Flag for Germany Past Weather in Emsdetten, North Rhine-Westphalia, Germany — Yesterday and Last 2 Weeks

Now
61 °F

Partly sunny.


Feels Like: 61 °F
Forecast: 50 / 58 °F
Wind: 2 mph from North

Location: Muenster / Osnabrueck

Current Time: Oct 1, 2016 at 4:02:07 PM

Latest Report: Oct 1, 2016 at 3:20 PM


Visibility: N/A

Pressure: 29.74 "Hg

Humidity: 68%

Dew Point: 50 °F

Location of EmsdettenLocation

Past Weather in Emsdetten — Graph

°F

Emsdetten Temperature Yesterday

Maximum temperature yesterday: 66 °F (at 3:20 PM)
Minimum temperature yesterday: 46 °F (at 10:50 PM)
Average temperature yesterday: 58 °F

High & Low Weather Summary for the Past Weeks

 TemperatureHumidityPressure
High81 °F (Sep 25, 3:20 PM)100% (Sep 21, 5:20 AM)30.30 "Hg (Sep 21, 5:20 AM)
Low43 °F (Sep 21, 5:20 AM)30% (Sep 25, 3:20 PM)29.74 "Hg (Oct 1, 2:50 PM)
Average60 °F72%30.09 "Hg
* Reported Sep 16 2:20 PM — Oct 1 2:50 PM, Emsdetten, Weather by CustomWeather, © 2016

Note: Actual official high and low records may vary slightly from our data, if they occured in-between our weather recording intervals... More about our weather records

Advertising

Emsdetten Weather History for the Previous 24 Hours

Scroll right to see more
 ConditionsComfort  
Time TempWeatherWind HumidityBarometerVisibility
2:50 PM
Sat, Oct 1
61 °FBroken clouds.3 mph68%29.74 "HgN/A
2:20 PM61 °FBroken clouds.6 mph72%29.77 "HgN/A
1:50 PM61 °FBroken clouds.5 mph72%29.77 "HgN/A
1:20 PM59 °FPartly sunny.6 mph77%29.77 "HgN/A
12:50 PM59 °FPartly sunny.7 mph77%29.80 "HgN/A
12:20 PM59 °FBroken clouds.5 mph77%29.80 "HgN/A
11:50 AM57 °FLight rain. Broken clouds.5 mph82%29.80 "HgN/A
11:20 AM55 °FLight rain. Broken clouds.2 mph88%29.80 "HgN/A
10:50 AM55 °FLight rain. Broken clouds.5 mph82%29.80 "HgN/A
10:20 AM54 °FMore clouds than sun.3 mph88%29.83 "HgN/A
9:50 AM54 °FPartly sunny.3 mph88%29.83 "HgN/A
9:20 AM54 °FPartly sunny.1 mph88%29.83 "HgN/A
8:50 AM52 °FPartly sunny.3 mph88%29.83 "HgN/A
8:20 AM52 °FPartly sunny.3 mph88%29.83 "HgN/A
7:50 AM52 °FPartly sunny.3 mph88%29.83 "HgN/A
7:20 AM52 °FPassing clouds.5 mph88%29.83 "HgN/A
6:50 AM52 °FPassing clouds.1 mph88%29.83 "HgN/A
6:20 AM50 °FPassing clouds.2 mph94%29.83 "HgN/A
5:50 AM50 °FPassing clouds.2 mph94%29.83 "HgN/A
5:20 AM50 °FPartly cloudy.2 mph88%29.86 "HgN/A
4:50 AM50 °FLight rain. Clear.1 mph88%29.86 "HgN/A
4:20 AM50 °FClear.1 mph88%29.86 "Hg10 mi
3:50 AM50 °FLight rain. Clear.3 mph88%29.86 "HgN/A
3:20 AM50 °FPassing clouds.5 mph88%29.89 "HgN/A
2:50 AM50 °FPassing clouds.3 mph88%29.89 "HgN/A
2:20 AM48 °FClear.No wind87%29.89 "Hg10 mi
1:50 AM50 °FClear.2 mph82%29.89 "Hg10 mi
1:20 AM48 °FClear.3 mph87%29.92 "Hg10 mi
12:50 AM48 °FClear.1 mph87%29.92 "Hg10 mi
12:20 AM48 °FPassing clouds.3 mph87%29.92 "HgN/A
11:50 PM
Fri, Sep 30
48 °FClear.2 mph82%29.92 "Hg10 mi
11:20 PM48 °FClear.6 mph87%29.95 "Hg10 mi
10:50 PM46 °FClear.No wind87%29.92 "Hg10 mi
10:20 PM48 °FClear.2 mph87%29.95 "Hg10 mi
9:50 PM48 °FClear.No wind87%29.95 "Hg10 mi
9:20 PM50 °FPassing clouds.3 mph76%29.95 "HgN/A
8:50 PM52 °FClear.1 mph77%29.95 "Hg10 mi
8:20 PM54 °FClear.5 mph67%29.95 "Hg10 mi
7:50 PM55 °FPassing clouds.5 mph67%29.92 "HgN/A
7:20 PM55 °FPassing clouds.3 mph67%29.92 "HgN/A
6:50 PM63 °FPassing clouds.6 mph49%29.92 "HgN/A
6:20 PM63 °FSunny.10 mph45%29.92 "Hg10 mi
5:50 PM64 °FSunny.10 mph46%29.92 "Hg10 mi
5:20 PM64 °FSunny.16 mph43%29.92 "Hg10 mi
4:50 PM64 °FSunny.17 mph46%29.92 "Hg10 mi
4:20 PM66 °FSunny.14 mph37%29.92 "Hg10 mi
Weather by CustomWeather, © 2016

See weather overviewHow to use our weather pages